Time,TemperatureF,DewpointF,PressureIn,WindDirection,WindDirectionDegrees,WindSpeedMPH,WindSpeedGustMPH,Humidity,HourlyPrecipIn,Conditions,Clouds,dailyrainin,SoftwareType,DateUTC
2013-06-20 00:01:00,68.8,61.3,30.02,SE,139,0.0,2.0,77,0.00,,,0.00,Wunderground v.1.15,2013-06-20 05:01:00,
2013-06-20 00:06:00,68.8,60.9,30.02,SE,139,0.0,2.0,76,0.00,,,0.00,Wunderground v.1.15,2013-06-20 05:06:00,
2013-06-20 00:11:00,68.8,60.9,30.02,SE,139,0.0,2.0,76,0.00,,,0.00,Wunderground v.1.15,2013-06-20 05:11:00,
2013-06-20 00:16:00,68.7,60.8,30.02,SE,139,0.0,2.0,76,0.00,,,0.00,Wunderground v.1.15,2013-06-20 05:16:00,
2013-06-20 00:21:00,68.7,61.2,30.02,SE,139,0.0,1.0,77,0.00,,,0.00,Wunderground v.1.15,2013-06-20 05:21:00,
2013-06-20 00:26:00,68.6,61.5,30.02,SE,134,0.0,1.0,78,0.00,,,0.00,Wunderground v.1.15,2013-06-20 05:26:00,
2013-06-20 00:31:00,68.5,61.4,30.02,SE,134,0.0,1.0,78,0.00,,,0.00,Wunderground v.1.15,2013-06-20 05:31:00,
2013-06-20 00:36:00,68.4,61.3,30.02,SE,133,0.0,2.0,78,0.00,,,0.00,Wunderground v.1.15,2013-06-20 05:36:00,
2013-06-20 00:41:00,68.3,61.5,30.02,SE,134,0.0,1.0,79,0.00,,,0.00,Wunderground v.1.15,2013-06-20 05:41:00,
2013-06-20 00:46:00,68.3,61.5,30.02,SE,135,1.0,2.0,79,0.00,,,0.00,Wunderground v.1.15,2013-06-20 05:46:00,
2013-06-20 00:51:00,68.2,61.4,30.02,SE,135,1.0,1.0,79,0.00,,,0.00,Wunderground v.1.15,2013-06-20 05:51:00,
2013-06-20 00:56:00,68.2,61.4,30.02,SE,135,0.0,2.0,79,0.00,,,0.00,Wunderground v.1.15,2013-06-20 05:56:00,
2013-06-20 01:01:00,68.2,61.4,30.02,SE,135,0.0,1.0,79,0.00,,,0.00,Wunderground v.1.15,2013-06-20 06:01:00,
2013-06-20 01:06:00,68.1,61.3,30.02,SE,134,0.0,2.0,79,0.00,,,0.00,Wunderground v.1.15,2013-06-20 06:06:00,
2013-06-20 01:11:00,68.1,61.3,30.01,SE,131,0.0,1.0,79,0.00,,,0.00,Wunderground v.1.15,2013-06-20 06:11:00,
2013-06-20 01:16:00,68.0,61.6,30.01,SE,130,0.0,3.0,80,0.00,,,0.00,Wunderground v.1.15,2013-06-20 06:16:00,
2013-06-20 01:21:00,67.9,61.5,30.01,SE,130,1.0,3.0,80,0.00,,,0.00,Wunderground v.1.15,2013-06-20 06:21:00,
2013-06-20 01:26:00,67.8,61.4,30.02,SE,130,0.0,3.0,80,0.00,,,0.00,Wunderground v.1.15,2013-06-20 06:26:00,
2013-06-20 01:31:00,67.7,61.3,30.02,SE,128,1.0,1.0,80,0.00,,,0.00,Wunderground v.1.15,2013-06-20 06:31:00,
2013-06-20 01:37:00,67.7,61.7,30.02,SE,128,1.0,2.0,81,0.00,,,0.00,Wunderground v.1.15,2013-06-20 06:37:00,
2013-06-20 01:42:00,67.6,61.6,30.02,SE,133,0.0,1.0,81,0.00,,,0.00,Wunderground v.1.15,2013-06-20 06:42:00,
2013-06-20 01:47:00,67.6,61.2,30.02,SSE,159,1.0,3.0,80,0.00,,,0.00,Wunderground v.1.15,2013-06-20 06:47:00,
2013-06-20 01:52:00,67.7,61.3,30.02,SE,138,0.0,1.0,80,0.00,,,0.00,Wunderground v.1.15,2013-06-20 06:52:00,
2013-06-20 01:57:00,67.6,61.6,30.02,SE,144,0.0,2.0,81,0.00,,,0.00,Wunderground v.1.15,2013-06-20 06:57:00,
2013-06-20 02:02:00,67.5,61.5,30.02,SE,126,0.0,1.0,81,0.00,,,0.00,Wunderground v.1.15,2013-06-20 07:02:00,
2013-06-20 02:07:00,67.3,61.6,30.02,ESE,123,0.0,1.0,82,0.00,,,0.00,Wunderground v.1.15,2013-06-20 07:07:00,
2013-06-20 02:13:00,67.1,61.8,30.02,ESE,121,1.0,2.0,83,0.00,,,0.00,Wunderground v.1.15,2013-06-20 07:13:00,
2013-06-20 02:18:00,67.0,62.3,30.02,ESE,119,0.0,2.0,85,0.00,,,0.00,Wunderground v.1.15,2013-06-20 07:18:00,
2013-06-20 02:24:00,66.8,62.5,30.03,ESE,122,0.0,1.0,86,0.00,,,0.00,Wunderground v.1.15,2013-06-20 07:24:00,
2013-06-20 02:29:00,66.8,62.8,30.03,SE,126,0.0,1.0,87,0.00,,,0.00,Wunderground v.1.15,2013-06-20 07:29:00,
2013-06-20 02:35:00,66.7,63.0,30.03,SE,141,2.0,4.0,88,0.00,,,0.00,Wunderground v.1.15,2013-06-20 07:35:00,
2013-06-20 02:40:00,66.6,63.3,30.03,ENE,74,3.0,3.0,89,0.00,,,0.00,Wunderground v.1.15,2013-06-20 07:40:00,
2013-06-20 02:46:00,66.5,63.2,30.03,East,93,2.0,3.0,89,0.00,,,0.00,Wunderground v.1.15,2013-06-20 07:46:00,
2013-06-20 02:52:00,66.4,63.4,30.02,East,84,0.0,2.0,90,0.00,,,0.00,Wunderground v.1.15,2013-06-20 07:52:00,
2013-06-20 02:57:00,66.3,63.6,30.02,SE,131,1.0,2.0,91,0.00,,,0.00,Wunderground v.1.15,2013-06-20 07:57:00,
2013-06-20 03:03:00,66.2,63.5,30.02,North,349,1.0,3.0,91,0.00,,,0.00,Wunderground v.1.15,2013-06-20 08:03:00,
2013-06-20 03:08:00,66.2,63.8,30.02,ESE,111,0.0,3.0,92,0.00,,,0.00,Wunderground v.1.15,2013-06-20 08:08:00,
2013-06-20 03:14:00,66.2,63.8,30.02,SE,131,2.0,2.0,92,0.00,,,0.00,Wunderground v.1.15,2013-06-20 08:14:00,
2013-06-20 03:19:00,66.2,63.8,30.02,WSW,243,1.0,2.0,92,0.00,,,0.00,Wunderground v.1.15,2013-06-20 08:19:00,
2013-06-20 03:25:00,66.1,63.7,30.02,ESE,115,1.0,1.0,92,0.00,,,0.00,Wunderground v.1.15,2013-06-20 08:25:00,
2013-06-20 03:30:00,66.1,63.7,30.02,SE,129,3.0,3.0,92,0.00,,,0.00,Wunderground v.1.15,2013-06-20 08:30:00,
2013-06-20 03:36:00,66.1,63.7,30.02,East,88,0.0,3.0,92,0.00,,,0.00,Wunderground v.1.15,2013-06-20 08:36:00,
2013-06-20 03:41:00,66.0,63.6,30.03,SE,131,0.0,1.0,92,0.00,,,0.00,Wunderground v.1.15,2013-06-20 08:41:00,
2013-06-20 03:47:00,66.0,63.6,30.03,ESE,123,1.0,2.0,92,0.00,,,0.00,Wunderground v.1.15,2013-06-20 08:47:00,
2013-06-20 03:52:00,65.9,63.5,30.03,SE,130,2.0,2.0,92,0.00,,,0.00,Wunderground v.1.15,2013-06-20 08:52:00,
2013-06-20 03:58:00,65.8,63.7,30.04,SE,138,1.0,2.0,93,0.00,,,0.00,Wunderground v.1.15,2013-06-20 08:58:00,
2013-06-20 04:03:00,65.7,63.3,30.04,SE,125,1.0,4.0,92,0.00,,,0.00,Wunderground v.1.15,2013-06-20 09:03:00,
2013-06-20 04:08:00,65.6,63.5,30.04,SE,126,4.0,5.0,93,0.00,,,0.00,Wunderground v.1.15,2013-06-20 09:08:00,
2013-06-20 04:13:00,65.6,63.5,30.04,SE,146,2.0,4.0,93,0.00,,,0.00,Wunderground v.1.15,2013-06-20 09:13:00,
2013-06-20 04:18:00,65.6,63.5,30.04,SE,128,2.0,7.0,93,0.00,,,0.00,Wunderground v.1.15,2013-06-20 09:18:00,
2013-06-20 04:23:00,65.6,63.5,30.04,ESE,115,5.0,7.0,93,0.00,,,0.00,Wunderground v.1.15,2013-06-20 09:23:00,
2013-06-20 04:28:00,65.6,63.5,30.04,SE,137,4.0,7.0,93,0.00,,,0.00,Wunderground v.1.15,2013-06-20 09:28:00,
2013-06-20 04:33:00,65.6,63.5,30.04,SE,136,3.0,5.0,93,0.00,,,0.00,Wunderground v.1.15,2013-06-20 09:33:00,
2013-06-20 04:38:00,65.6,63.5,30.04,South,180,1.0,6.0,93,0.00,,,0.00,Wunderground v.1.15,2013-06-20 09:38:00,
2013-06-20 04:43:00,65.6,63.5,30.04,ESE,108,0.0,6.0,93,0.00,,,0.00,Wunderground v.1.15,2013-06-20 09:43:00,
2013-06-20 04:48:00,65.6,63.5,30.05,SE,137,3.0,6.0,93,0.00,,,0.00,Wunderground v.1.15,2013-06-20 09:48:00,
2013-06-20 04:53:00,65.6,63.5,30.05,SE,146,1.0,5.0,93,0.00,,,0.00,Wunderground v.1.15,2013-06-20 09:53:00,
2013-06-20 04:58:00,65.7,63.6,30.05,East,89,1.0,5.0,93,0.00,,,0.00,Wunderground v.1.15,2013-06-20 09:58:00,
2013-06-20 05:03:00,65.6,63.5,30.05,ENE,71,2.0,5.0,93,0.00,,,0.00,Wunderground v.1.15,2013-06-20 10:03:00,
2013-06-20 05:08:00,65.6,63.5,30.05,East,101,3.0,5.0,93,0.00,,,0.00,Wunderground v.1.15,2013-06-20 10:08:00,
2013-06-20 05:13:00,65.7,63.6,30.05,East,101,1.0,5.0,93,0.00,,,0.00,Wunderground v.1.15,2013-06-20 10:13:00,
2013-06-20 05:18:00,65.6,63.5,30.05,SE,140,2.0,6.0,93,0.00,,,0.00,Wunderground v.1.15,2013-06-20 10:18:00,
2013-06-20 05:23:00,65.7,63.9,30.06,South,173,2.0,5.0,94,0.00,,,0.00,Wunderground v.1.15,2013-06-20 10:23:00,
2013-06-20 05:28:00,65.7,63.9,30.06,WNW,296,1.0,6.0,94,0.00,,,0.00,Wunderground v.1.15,2013-06-20 10:28:00,
2013-06-20 05:33:00,65.7,63.9,30.06,SE,129,1.0,4.0,94,0.00,,,0.00,Wunderground v.1.15,2013-06-20 10:33:00,
2013-06-20 05:38:00,65.6,63.8,30.06,ESE,104,0.0,4.0,94,0.00,,,0.00,Wunderground v.1.15,2013-06-20 10:38:00,
2013-06-20 05:43:00,65.6,63.8,30.06,ESE,114,4.0,4.0,94,0.00,,,0.00,Wunderground v.1.15,2013-06-20 10:43:00,
2013-06-20 05:48:00,65.6,63.8,30.06,East,96,0.0,4.0,94,0.00,,,0.00,Wunderground v.1.15,2013-06-20 10:48:00,
2013-06-20 05:53:00,65.6,63.8,30.06,WSW,238,1.0,4.0,94,0.00,,,0.00,Wunderground v.1.15,2013-06-20 10:53:00,
2013-06-20 05:59:00,65.6,63.8,30.06,ESE,114,1.0,4.0,94,0.00,,,0.00,Wunderground v.1.15,2013-06-20 10:59:00,
2013-06-20 06:04:00,65.6,63.8,30.06,SE,138,1.0,2.0,94,0.00,,,0.00,Wunderground v.1.15,2013-06-20 11:04:00,
2013-06-20 06:09:00,65.7,63.9,30.06,SSE,148,0.0,3.0,94,0.00,,,0.00,Wunderground v.1.15,2013-06-20 11:09:00,
2013-06-20 06:14:00,65.8,64.0,30.06,SE,126,1.0,2.0,94,0.00,,,0.00,Wunderground v.1.15,2013-06-20 11:14:00,
2013-06-20 06:19:00,65.9,64.1,30.06,ENE,74,0.0,4.0,94,0.00,,,0.00,Wunderground v.1.15,2013-06-20 11:19:00,
2013-06-20 06:24:00,66.0,64.2,30.07,SE,134,0.0,3.0,94,0.00,,,0.00,Wunderground v.1.15,2013-06-20 11:24:00,
2013-06-20 06:29:00,66.1,64.3,30.07,ESE,118,0.0,3.0,94,0.00,,,0.00,Wunderground v.1.15,2013-06-20 11:29:00,
2013-06-20 06:34:00,66.3,64.5,30.07,East,93,0.0,3.0,94,0.00,,,0.00,Wunderground v.1.15,2013-06-20 11:34:00,
2013-06-20 06:39:00,66.4,64.6,30.07,SE,132,1.0,3.0,94,0.00,,,0.00,Wunderground v.1.15,2013-06-20 11:39:00,
2013-06-20 06:44:00,66.6,64.8,30.07,SW,227,0.0,2.0,94,0.00,,,0.00,Wunderground v.1.15,2013-06-20 11:44:00,
2013-06-20 06:49:00,66.7,64.9,30.08,SE,138,0.0,3.0,94,0.00,,,0.00,Wunderground v.1.15,2013-06-20 11:49:00,
2013-06-20 06:54:00,66.8,65.0,30.08,SE,146,0.0,1.0,94,0.00,,,0.00,Wunderground v.1.15,2013-06-20 11:54:00,
2013-06-20 06:59:00,67.0,65.2,30.08,ENE,77,0.0,1.0,94,0.00,,,0.00,Wunderground v.1.15,2013-06-20 11:59:00,
2013-06-20 07:04:00,67.1,65.0,30.08,ESE,122,0.0,1.0,93,0.00,,,0.00,Wunderground v.1.15,2013-06-20 12:04:00,
2013-06-20 07:09:00,67.2,65.1,30.08,ESE,109,0.0,1.0,93,0.00,,,0.00,Wunderground v.1.15,2013-06-20 12:09:00,
2013-06-20 07:14:00,67.4,65.3,30.09,ESE,109,0.0,0.0,93,0.00,,,0.00,Wunderground v.1.15,2013-06-20 12:14:00,
2013-06-20 07:19:00,67.5,65.4,30.09,ESE,110,0.0,2.0,93,0.00,,,0.00,Wunderground v.1.15,2013-06-20 12:19:00,
2013-06-20 07:25:00,67.7,65.6,30.09,SE,137,0.0,2.0,93,0.00,,,0.00,Wunderground v.1.15,2013-06-20 12:25:00,
2013-06-20 07:30:00,67.9,65.8,30.09,SE,129,0.0,0.0,93,0.00,,,0.00,Wunderground v.1.15,2013-06-20 12:30:00,
2013-06-20 07:35:00,68.1,65.7,30.09,SE,143,0.0,3.0,92,0.00,,,0.00,Wunderground v.1.15,2013-06-20 12:35:00,
2013-06-20 07:40:00,68.3,65.6,30.09,South,178,0.0,0.0,91,0.00,,,0.00,Wunderground v.1.15,2013-06-20 12:40:00,
2013-06-20 07:45:00,68.5,65.8,30.09,ESE,121,0.0,1.0,91,0.00,,,0.00,Wunderground v.1.15,2013-06-20 12:45:00,
2013-06-20 07:50:00,68.6,65.9,30.09,SE,140,1.0,1.0,91,0.00,,,0.00,Wunderground v.1.15,2013-06-20 12:50:00,
2013-06-20 07:55:00,68.7,65.6,30.10,NE,49,1.0,4.0,90,0.00,,,0.00,Wunderground v.1.15,2013-06-20 12:55:00,
2013-06-20 08:00:00,68.8,65.7,30.10,SE,140,1.0,2.0,90,0.00,,,0.00,Wunderground v.1.15,2013-06-20 13:00:00,
2013-06-20 08:05:00,69.0,65.9,30.10,ESE,115,3.0,5.0,90,0.00,,,0.00,Wunderground v.1.15,2013-06-20 13:05:00,
2013-06-20 08:10:00,69.1,65.7,30.10,South,188,0.0,1.0,89,0.00,,,0.00,Wunderground v.1.15,2013-06-20 13:10:00,
2013-06-20 08:15:00,69.2,65.8,30.10,SE,142,0.0,4.0,89,0.00,,,0.00,Wunderground v.1.15,2013-06-20 13:15:00,
2013-06-20 08:20:00,69.4,66.0,30.10,ESE,117,0.0,3.0,89,0.00,,,0.00,Wunderground v.1.15,2013-06-20 13:20:00,
2013-06-20 08:25:00,69.5,66.1,30.10,SE,133,2.0,3.0,89,0.00,,,0.00,Wunderground v.1.15,2013-06-20 13:25:00,
2013-06-20 08:30:00,69.7,66.0,30.10,SSW,213,0.0,3.0,88,0.00,,,0.00,Wunderground v.1.15,2013-06-20 13:30:00,
2013-06-20 08:35:00,69.8,65.8,30.10,ESE,105,1.0,3.0,87,0.00,,,0.00,Wunderground v.1.15,2013-06-20 13:35:00,
2013-06-20 08:40:00,70.0,66.3,30.11,SSW,204,0.0,1.0,88,0.00,,,0.00,Wunderground v.1.15,2013-06-20 13:40:00,
2013-06-20 08:45:00,70.2,66.5,30.11,NW,309,0.0,1.0,88,0.00,,,0.00,Wunderground v.1.15,2013-06-20 13:45:00,
2013-06-20 08:50:00,70.3,65.9,30.11,SSW,205,2.0,5.0,86,0.00,,,0.00,Wunderground v.1.15,2013-06-20 13:50:00,
2013-06-20 08:55:00,70.4,65.7,30.11,ESE,120,1.0,6.0,85,0.00,,,0.00,Wunderground v.1.15,2013-06-20 13:55:00,
2013-06-20 09:01:00,70.6,65.5,30.11,SE,129,3.0,3.0,84,0.00,,,0.00,Wunderground v.1.15,2013-06-20 14:01:00,
2013-06-20 09:06:00,71.0,65.6,30.11,SE,145,1.0,6.0,83,0.00,,,0.00,Wunderground v.1.15,2013-06-20 14:06:00,
2013-06-20 09:11:00,71.3,66.2,30.11,NW,320,0.0,3.0,84,0.00,,,0.00,Wunderground v.1.15,2013-06-20 14:11:00,
2013-06-20 09:16:00,71.4,65.6,30.10,East,98,0.0,3.0,82,0.00,,,0.00,Wunderground v.1.15,2013-06-20 14:16:00,
2013-06-20 09:21:00,71.6,66.2,30.10,ESE,117,2.0,2.0,83,0.00,,,0.00,Wunderground v.1.15,2013-06-20 14:21:00,
2013-06-20 09:26:00,71.8,66.7,30.10,SSW,202,0.0,3.0,84,0.00,,,0.00,Wunderground v.1.15,2013-06-20 14:26:00,
2013-06-20 09:31:00,72.0,67.2,30.11,SE,140,1.0,1.0,85,0.00,,,0.00,Wunderground v.1.15,2013-06-20 14:31:00,
2013-06-20 09:36:00,72.2,67.1,30.11,North,360,0.0,2.0,84,0.00,,,0.00,Wunderground v.1.15,2013-06-20 14:36:00,
2013-06-20 09:41:00,72.1,66.6,30.11,SE,130,1.0,2.0,83,0.00,,,0.00,Wunderground v.1.15,2013-06-20 14:41:00,
2013-06-20 09:46:00,72.2,66.7,30.11,NW,309,1.0,4.0,83,0.00,,,0.00,Wunderground v.1.15,2013-06-20 14:46:00,
2013-06-20 09:51:00,72.3,66.1,30.11,ESE,116,0.0,1.0,81,0.00,,,0.00,Wunderground v.1.15,2013-06-20 14:51:00,
2013-06-20 09:56:00,72.5,67.0,30.11,NNE,22,0.0,2.0,83,0.00,,,0.00,Wunderground v.1.15,2013-06-20 14:56:00,
2013-06-20 10:01:00,72.7,67.6,30.11,WNW,298,0.0,1.0,84,0.00,,,0.00,Wunderground v.1.15,2013-06-20 15:01:00,
2013-06-20 10:06:00,73.0,67.9,30.11,West,280,0.0,1.0,84,0.00,,,0.00,Wunderground v.1.15,2013-06-20 15:06:00,
2013-06-20 10:11:00,73.1,67.6,30.11,NE,41,0.0,2.0,83,0.00,,,0.00,Wunderground v.1.15,2013-06-20 15:11:00,
2013-06-20 10:16:00,73.3,67.1,30.11,SE,124,1.0,5.0,81,0.00,,,0.00,Wunderground v.1.15,2013-06-20 15:16:00,
2013-06-20 10:21:00,73.6,67.4,30.11,WNW,288,3.0,3.0,81,0.00,,,0.00,Wunderground v.1.15,2013-06-20 15:21:00,
2013-06-20 10:26:00,73.4,67.9,30.12,West,266,0.0,5.0,83,0.00,,,0.00,Wunderground v.1.15,2013-06-20 15:26:00,
2013-06-20 10:31:00,73.1,66.6,30.12,West,266,0.0,1.0,80,0.00,,,0.00,Wunderground v.1.15,2013-06-20 15:31:00,
2013-06-20 10:36:00,72.9,67.4,30.12,West,266,1.0,1.0,83,0.00,,,0.00,Wunderground v.1.15,2013-06-20 15:36:00,
2013-06-20 10:42:00,72.6,66.8,30.12,WSW,243,3.0,4.0,82,0.00,,,0.00,Wunderground v.1.15,2013-06-20 15:42:00,
2013-06-20 10:47:00,72.2,66.7,30.13,West,271,5.0,6.0,83,0.00,,,0.00,Wunderground v.1.15,2013-06-20 15:47:00,
2013-06-20 10:52:00,71.6,66.5,30.12,WSW,254,3.0,3.0,84,0.00,,,0.00,Wunderground v.1.15,2013-06-20 15:52:00,
2013-06-20 10:57:00,71.4,66.3,30.12,WSW,247,1.0,4.0,84,0.00,,,0.00,Wunderground v.1.15,2013-06-20 15:57:00,
2013-06-20 11:02:00,71.5,66.8,30.12,SW,236,2.0,4.0,85,0.00,,,0.00,Wunderground v.1.15,2013-06-20 16:02:00,
2013-06-20 11:07:00,71.8,66.7,30.12,NW,311,1.0,4.0,84,0.00,,,0.00,Wunderground v.1.15,2013-06-20 16:07:00,
2013-06-20 11:12:00,72.3,66.5,30.12,WSW,252,6.0,6.0,82,0.00,,,0.00,Wunderground v.1.15,2013-06-20 16:12:00,
2013-06-20 11:17:00,72.4,66.9,30.12,SW,229,0.0,6.0,83,0.00,,,0.00,Wunderground v.1.15,2013-06-20 16:17:00,
2013-06-20 11:22:00,72.3,67.2,30.12,SW,236,1.0,2.0,84,0.00,,,0.00,Wunderground v.1.15,2013-06-20 16:22:00,
2013-06-20 11:27:00,72.3,67.2,30.11,SW,236,0.0,2.0,84,0.00,,,0.00,Wunderground v.1.15,2013-06-20 16:27:00,
2013-06-20 11:32:00,72.6,67.5,30.11,South,190,0.0,0.0,84,0.00,,,0.00,Wunderground v.1.15,2013-06-20 16:32:00,
2013-06-20 11:37:00,73.2,68.1,30.11,WSW,238,0.0,3.0,84,0.00,,,0.00,Wunderground v.1.15,2013-06-20 16:37:00,
2013-06-20 11:42:00,73.8,68.3,30.11,WSW,245,2.0,2.0,83,0.00,,,0.00,Wunderground v.1.15,2013-06-20 16:42:00,
2013-06-20 11:47:00,74.3,68.4,30.11,West,265,1.0,3.0,82,0.00,,,0.00,Wunderground v.1.15,2013-06-20 16:47:00,
2013-06-20 11:52:00,74.5,67.6,30.11,SSW,211,1.0,3.0,79,0.00,,,0.00,Wunderground v.1.15,2013-06-20 16:52:00,
2013-06-20 11:57:00,74.6,67.3,30.11,SSW,211,1.0,3.0,78,0.00,,,0.00,Wunderground v.1.15,2013-06-20 16:57:00,
2013-06-20 12:02:00,75.1,67.0,30.11,ENE,69,1.0,5.0,76,0.00,,,0.00,Wunderground v.1.15,2013-06-20 17:02:00,
2013-06-20 12:07:00,75.6,67.5,30.11,SSW,213,0.0,7.0,76,0.00,,,0.00,Wunderground v.1.15,2013-06-20 17:07:00,
2013-06-20 12:12:00,75.8,66.9,30.11,ESE,103,0.0,2.0,74,0.00,,,0.00,Wunderground v.1.15,2013-06-20 17:12:00,
2013-06-20 12:17:00,75.8,67.3,30.11,SE,129,0.0,4.0,75,0.00,,,0.00,Wunderground v.1.15,2013-06-20 17:17:00,
2013-06-20 12:22:00,75.5,66.6,30.11,South,186,1.0,4.0,74,0.00,,,0.00,Wunderground v.1.15,2013-06-20 17:22:00,
2013-06-20 12:27:00,75.4,67.3,30.11,SE,137,0.0,5.0,76,0.00,,,0.00,Wunderground v.1.15,2013-06-20 17:27:00,
2013-06-20 12:32:00,75.3,67.2,30.10,South,187,1.0,3.0,76,0.00,,,0.00,Wunderground v.1.15,2013-06-20 17:32:00,
2013-06-20 12:37:00,75.0,66.1,30.10,SSW,196,0.0,5.0,74,0.00,,,0.00,Wunderground v.1.15,2013-06-20 17:37:00,
2013-06-20 12:42:00,75.4,67.3,30.10,WNW,285,2.0,6.0,76,0.00,,,0.00,Wunderground v.1.15,2013-06-20 17:42:00,
2013-06-20 12:47:00,75.9,67.4,30.10,WNW,284,1.0,6.0,75,0.00,,,0.00,Wunderground v.1.15,2013-06-20 17:47:00,
2013-06-20 12:52:00,76.3,67.8,30.10,West,281,0.0,1.0,75,0.00,,,0.00,Wunderground v.1.15,2013-06-20 17:52:00,
2013-06-20 12:57:00,76.5,68.0,30.10,West,280,1.0,3.0,75,0.00,,,0.00,Wunderground v.1.15,2013-06-20 17:57:00,
2013-06-20 13:02:00,76.7,68.2,30.10,West,280,0.0,3.0,75,0.00,,,0.00,Wunderground v.1.15,2013-06-20 18:02:00,
2013-06-20 13:08:00,77.0,67.3,30.10,West,280,0.0,3.0,72,0.00,,,0.00,Wunderground v.1.15,2013-06-20 18:08:00,
2013-06-20 13:13:00,76.9,67.6,30.10,WSW,237,1.0,3.0,73,0.00,,,0.00,Wunderground v.1.15,2013-06-20 18:13:00,
2013-06-20 13:18:00,76.6,67.3,30.09,West,273,2.0,3.0,73,0.00,,,0.00,Wunderground v.1.15,2013-06-20 18:18:00,
2013-06-20 13:23:00,76.4,68.7,30.09,North,349,0.0,3.0,77,0.00,,,0.00,Wunderground v.1.15,2013-06-20 18:23:00,
2013-06-20 13:28:00,76.5,68.0,30.09,North,349,0.0,3.0,75,0.00,,,0.00,Wunderground v.1.15,2013-06-20 18:28:00,
2013-06-20 13:33:00,76.7,67.4,30.09,North,349,0.0,0.0,73,0.00,,,0.00,Wunderground v.1.15,2013-06-20 18:33:00,
2013-06-20 13:38:00,76.9,68.0,30.09,NNW,348,0.0,1.0,74,0.00,,,0.00,Wunderground v.1.15,2013-06-20 18:38:00,
2013-06-20 13:43:00,77.1,67.8,30.09,South,185,0.0,0.0,73,0.00,,,0.00,Wunderground v.1.15,2013-06-20 18:43:00,
2013-06-20 13:48:00,77.0,67.3,30.09,South,185,0.0,0.0,72,0.00,,,0.00,Wunderground v.1.15,2013-06-20 18:48:00,
2013-06-20 13:53:00,76.9,67.6,30.09,South,185,0.0,0.0,73,0.00,,,0.00,Wunderground v.1.15,2013-06-20 18:53:00,
2013-06-20 13:58:00,76.8,67.5,30.09,South,185,1.0,1.0,73,0.00,,,0.00,Wunderground v.1.15,2013-06-20 18:58:00,
2013-06-20 14:03:00,76.3,66.6,30.09,SW,222,1.0,4.0,72,0.00,,,0.00,Wunderground v.1.15,2013-06-20 19:03:00,
2013-06-20 14:08:00,75.8,66.5,30.09,SW,222,0.0,4.0,73,0.00,,,0.00,Wunderground v.1.15,2013-06-20 19:08:00,
2013-06-20 14:13:00,75.5,66.2,30.09,SW,222,1.0,2.0,73,0.00,,,0.00,Wunderground v.1.15,2013-06-20 19:13:00,
2013-06-20 14:18:00,75.2,65.9,30.09,SW,222,0.0,2.0,73,0.00,,,0.00,Wunderground v.1.15,2013-06-20 19:18:00,
2013-06-20 14:23:00,75.4,68.1,30.09,SW,222,0.0,0.0,78,0.00,,,0.00,Wunderground v.1.15,2013-06-20 19:23:00,
2013-06-20 14:29:00,75.2,65.6,30.09,SW,222,0.0,1.0,72,0.00,,,0.00,Wunderground v.1.15,2013-06-20 19:29:00,
2013-06-20 14:34:00,74.9,65.7,30.09,SW,222,0.0,0.0,73,0.00,,,0.00,Wunderground v.1.15,2013-06-20 19:34:00,
2013-06-20 14:39:00,74.7,65.9,30.09,SW,223,1.0,2.0,74,0.00,,,0.00,Wunderground v.1.15,2013-06-20 19:39:00,
2013-06-20 14:44:00,74.8,67.1,30.09,NW,324,1.0,4.0,77,0.00,,,0.00,Wunderground v.1.15,2013-06-20 19:44:00,
2013-06-20 14:49:00,74.4,67.1,30.09,NNW,337,0.0,4.0,78,0.00,,,0.00,Wunderground v.1.15,2013-06-20 19:49:00,
2013-06-20 14:54:00,74.2,67.3,30.09,NNW,337,0.0,2.0,79,0.00,,,0.00,Wunderground v.1.15,2013-06-20 19:54:00,
2013-06-20 14:59:00,73.9,67.0,30.09,WSW,237,2.0,4.0,79,0.00,,,0.01,Wunderground v.1.15,2013-06-20 19:59:00,
2013-06-20 15:04:00,73.1,66.2,30.09,WSW,237,0.0,2.0,79,0.17,,,0.02,Wunderground v.1.15,2013-06-20 20:04:00,
2013-06-20 15:09:00,72.9,67.1,30.09,WSW,237,0.0,2.0,82,0.07,,,0.02,Wunderground v.1.15,2013-06-20 20:09:00,
2013-06-20 15:14:00,72.8,67.7,30.08,WSW,237,0.0,1.0,84,0.04,,,0.02,Wunderground v.1.15,2013-06-20 20:14:00,
2013-06-20 15:19:00,72.7,66.9,30.08,NNW,343,0.0,3.0,82,0.00,,,0.02,Wunderground v.1.15,2013-06-20 20:19:00,
2013-06-20 15:24:00,72.5,66.3,30.08,NNW,343,0.0,0.0,81,0.00,,,0.02,Wunderground v.1.15,2013-06-20 20:24:00,
2013-06-20 15:29:00,72.4,64.4,30.09,NNW,343,0.0,0.0,76,0.00,,,0.02,Wunderground v.1.15,2013-06-20 20:29:00,
2013-06-20 15:34:00,72.5,65.2,30.09,NNW,343,1.0,2.0,78,0.00,,,0.02,Wunderground v.1.15,2013-06-20 20:34:00,
2013-06-20 15:39:00,72.3,65.8,30.09,NNW,331,1.0,2.0,80,0.00,,,0.02,Wunderground v.1.15,2013-06-20 20:39:00,
2013-06-20 15:44:00,72.0,65.5,30.09,NW,306,7.0,8.0,80,0.00,,,0.02,Wunderground v.1.15,2013-06-20 20:44:00,
2013-06-20 15:49:00,71.1,66.7,30.09,WNW,292,6.0,11.0,86,0.00,,,0.02,Wunderground v.1.15,2013-06-20 20:49:00,
2013-06-20 15:54:00,69.6,64.9,30.09,WNW,297,6.0,11.0,85,0.00,,,0.02,Wunderground v.1.15,2013-06-20 20:54:00,
2013-06-20 15:59:00,69.2,64.2,30.09,WNW,294,8.0,11.0,84,0.00,,,0.02,Wunderground v.1.15,2013-06-20 20:59:00,
2013-06-20 16:04:00,69.2,64.5,30.09,WNW,296,5.0,10.0,85,0.00,,,0.02,Wunderground v.1.15,2013-06-20 21:04:00,
2013-06-20 16:09:00,68.8,64.8,30.08,SSW,210,5.0,10.0,87,0.00,,,0.02,Wunderground v.1.15,2013-06-20 21:09:00,
2013-06-20 16:14:00,68.8,64.8,30.08,SW,215,5.0,10.0,87,0.00,,,0.02,Wunderground v.1.15,2013-06-20 21:14:00,
2013-06-20 16:19:00,69.1,65.1,30.08,SW,220,5.0,10.0,87,0.00,,,0.02,Wunderground v.1.15,2013-06-20 21:19:00,
2013-06-20 16:24:00,69.6,64.9,30.08,SW,217,5.0,8.0,85,0.00,,,0.02,Wunderground v.1.15,2013-06-20 21:24:00,
2013-06-20 16:29:00,70.0,65.6,30.07,SE,146,5.0,8.0,86,0.00,,,0.03,Wunderground v.1.15,2013-06-20 21:29:00,
2013-06-20 16:34:00,69.9,65.9,30.07,SSE,150,6.0,8.0,87,0.00,,,0.03,Wunderground v.1.15,2013-06-20 21:34:00,
2013-06-20 16:39:00,69.5,66.1,30.06,SE,128,4.0,8.0,89,0.00,,,0.03,Wunderground v.1.15,2013-06-20 21:39:00,
2013-06-20 16:44:00,69.3,65.9,30.06,SW,233,1.0,7.0,89,0.00,,,0.03,Wunderground v.1.15,2013-06-20 21:44:00,
2013-06-20 16:49:00,69.2,65.5,30.06,ESE,102,0.0,7.0,88,0.00,,,0.03,Wunderground v.1.15,2013-06-20 21:49:00,
2013-06-20 16:54:00,69.0,64.6,30.06,SSE,157,0.0,5.0,86,0.00,,,0.03,Wunderground v.1.15,2013-06-20 21:54:00,
2013-06-20 16:59:00,68.9,64.5,30.05,NNE,12,2.0,7.0,86,0.00,,,0.03,Wunderground v.1.15,2013-06-20 21:59:00,
2013-06-20 17:04:00,69.3,64.3,30.05,ESE,123,5.0,8.0,84,0.00,,,0.03,Wunderground v.1.15,2013-06-20 22:04:00,
2013-06-20 17:09:00,70.2,63.4,30.05,SE,134,2.0,8.0,79,0.00,,,0.03,Wunderground v.1.15,2013-06-20 22:09:00,
2013-06-20 17:14:00,71.6,62.9,30.05,ESE,123,1.0,4.0,74,0.00,,,0.03,Wunderground v.1.15,2013-06-20 22:14:00,
2013-06-20 17:19:00,72.9,64.1,30.05,SE,136,2.0,4.0,74,0.00,,,0.03,Wunderground v.1.15,2013-06-20 22:19:00,
2013-06-20 17:24:00,73.9,63.9,30.06,SE,136,3.0,4.0,71,0.00,,,0.03,Wunderground v.1.15,2013-06-20 22:24:00,
2013-06-20 17:30:00,74.5,64.5,30.06,SE,134,0.0,1.0,71,0.00,,,0.03,Wunderground v.1.15,2013-06-20 22:30:00,
2013-06-20 17:35:00,74.2,65.0,30.06,SE,131,2.0,4.0,73,0.00,,,0.03,Wunderground v.1.15,2013-06-20 22:35:00,
2013-06-20 17:40:00,73.0,64.2,30.06,SE,128,3.0,5.0,74,0.00,,,0.03,Wunderground v.1.15,2013-06-20 22:40:00,
2013-06-20 17:45:00,72.2,64.6,30.06,East,82,3.0,5.0,77,0.00,,,0.03,Wunderground v.1.15,2013-06-20 22:45:00,
2013-06-20 17:50:00,71.5,64.6,30.06,West,262,0.0,2.0,79,0.00,,,0.03,Wunderground v.1.15,2013-06-20 22:50:00,
2013-06-20 17:55:00,71.8,66.0,30.06,NNW,335,3.0,6.0,82,0.00,,,0.03,Wunderground v.1.15,2013-06-20 22:55:00,
2013-06-20 18:00:00,72.5,66.7,30.06,ESE,122,0.0,2.0,82,0.00,,,0.03,Wunderground v.1.15,2013-06-20 23:00:00,
2013-06-20 18:05:00,73.2,66.7,30.06,SE,142,3.0,4.0,80,0.00,,,0.03,Wunderground v.1.15,2013-06-20 23:05:00,
2013-06-20 18:10:00,73.7,66.8,30.07,ESE,121,4.0,4.0,79,0.00,,,0.03,Wunderground v.1.15,2013-06-20 23:10:00,
2013-06-20 18:15:00,74.0,66.0,30.07,ESE,114,3.0,5.0,76,0.00,,,0.03,Wunderground v.1.15,2013-06-20 23:15:00,
2013-06-20 18:20:00,73.9,67.3,30.08,SE,135,0.0,1.0,80,0.00,,,0.03,Wunderground v.1.15,2013-06-20 23:20:00,
2013-06-20 18:25:00,73.4,66.1,30.08,East,89,0.0,2.0,78,0.00,,,0.03,Wunderground v.1.15,2013-06-20 23:25:00,
2013-06-20 18:30:00,72.7,65.8,30.08,ESE,123,0.0,0.0,79,0.00,,,0.03,Wunderground v.1.15,2013-06-20 23:30:00,
2013-06-20 18:35:00,72.0,65.5,30.08,ESE,122,0.0,1.0,80,0.00,,,0.03,Wunderground v.1.15,2013-06-20 23:35:00,
2013-06-20 18:40:00,71.3,65.5,30.08,ESE,122,0.0,0.0,82,0.00,,,0.03,Wunderground v.1.15,2013-06-20 23:40:00,
2013-06-20 18:45:00,70.7,64.9,30.08,SE,143,0.0,3.0,82,0.00,,,0.03,Wunderground v.1.15,2013-06-20 23:45:00,
2013-06-20 18:50:00,70.1,64.3,30.08,SE,134,0.0,2.0,82,0.00,,,0.03,Wunderground v.1.15,2013-06-20 23:50:00,
2013-06-20 18:55:00,69.8,64.4,30.08,SE,133,1.0,3.0,83,0.00,,,0.03,Wunderground v.1.15,2013-06-20 23:55:00,
2013-06-20 19:00:00,69.7,64.6,30.08,ESE,117,1.0,3.0,84,0.00,,,0.03,Wunderground v.1.15,2013-06-21 00:00:00,
2013-06-20 19:05:00,69.5,64.1,30.08,SE,133,0.0,3.0,83,0.00,,,0.03,Wunderground v.1.15,2013-06-21 00:05:00,
2013-06-20 19:10:00,69.5,64.5,30.08,ESE,115,0.0,1.0,84,0.00,,,0.03,Wunderground v.1.15,2013-06-21 00:10:00,
2013-06-20 19:15:00,69.4,64.0,30.09,SSE,156,1.0,2.0,83,0.00,,,0.03,Wunderground v.1.15,2013-06-21 00:15:00,
2013-06-20 19:21:00,69.4,63.3,30.09,SE,128,1.0,1.0,81,0.00,,,0.03,Wunderground v.1.15,2013-06-21 00:21:00,
2013-06-20 19:26:00,69.5,63.4,30.09,SE,128,0.0,1.0,81,0.00,,,0.03,Wunderground v.1.15,2013-06-21 00:26:00,
2013-06-20 19:31:00,69.5,63.8,30.10,NNE,19,0.0,1.0,82,0.00,,,0.03,Wunderground v.1.15,2013-06-21 00:31:00,
2013-06-20 19:36:00,69.4,64.4,30.09,SSE,149,0.0,2.0,84,0.00,,,0.03,Wunderground v.1.15,2013-06-21 00:36:00,
2013-06-20 19:41:00,69.1,64.4,30.09,SW,226,0.0,0.0,85,0.00,,,0.03,Wunderground v.1.15,2013-06-21 00:41:00,
2013-06-20 19:46:00,68.8,64.1,30.10,East,100,0.0,1.0,85,0.00,,,0.03,Wunderground v.1.15,2013-06-21 00:46:00,
2013-06-20 19:51:00,68.7,64.0,30.10,East,100,0.0,1.0,85,0.00,,,0.03,Wunderground v.1.15,2013-06-21 00:51:00,
2013-06-20 19:56:00,68.7,64.0,30.10,North,5,1.0,3.0,85,0.00,,,0.03,Wunderground v.1.15,2013-06-21 00:56:00,
2013-06-20 20:01:00,68.7,64.7,30.10,NNE,30,0.0,1.0,87,0.00,,,0.03,Wunderground v.1.15,2013-06-21 01:01:00,
2013-06-20 20:06:00,68.7,64.7,30.10,NE,46,0.0,1.0,87,0.00,,,0.03,Wunderground v.1.15,2013-06-21 01:06:00,
2013-06-20 20:11:00,68.6,64.6,30.10,East,82,0.0,3.0,87,0.00,,,0.03,Wunderground v.1.15,2013-06-21 01:11:00,
2013-06-20 20:16:00,68.5,64.8,30.10,ESE,103,0.0,3.0,88,0.00,,,0.03,Wunderground v.1.15,2013-06-21 01:16:00,
2013-06-20 20:21:00,68.3,64.9,30.10,ESE,109,0.0,1.0,89,0.00,,,0.03,Wunderground v.1.15,2013-06-21 01:21:00,
2013-06-20 20:26:00,68.2,64.8,30.10,East,92,0.0,3.0,89,0.00,,,0.03,Wunderground v.1.15,2013-06-21 01:26:00,
2013-06-20 20:31:00,68.0,65.0,30.10,East,94,0.0,0.0,90,0.00,,,0.03,Wunderground v.1.15,2013-06-21 01:31:00,
2013-06-20 20:36:00,67.8,64.8,30.10,East,98,0.0,1.0,90,0.00,,,0.03,Wunderground v.1.15,2013-06-21 01:36:00,
2013-06-20 20:41:00,67.6,64.9,30.09,ESE,103,0.0,0.0,91,0.00,,,0.03,Wunderground v.1.15,2013-06-21 01:41:00,
2013-06-20 20:46:00,67.4,64.7,30.09,SE,131,0.0,2.0,91,0.00,,,0.03,Wunderground v.1.15,2013-06-21 01:46:00,
2013-06-20 20:51:00,67.2,64.5,30.09,SE,132,1.0,3.0,91,0.00,,,0.03,Wunderground v.1.15,2013-06-21 01:51:00,
2013-06-20 20:56:00,67.1,64.4,30.10,South,190,0.0,4.0,91,0.00,,,0.03,Wunderground v.1.15,2013-06-21 01:56:00,
2013-06-20 21:01:00,67.1,64.1,30.10,SW,225,0.0,0.0,90,0.00,,,0.03,Wunderground v.1.15,2013-06-21 02:01:00,
2013-06-20 21:06:00,67.2,64.2,30.10,SW,236,0.0,4.0,90,0.00,,,0.03,Wunderground v.1.15,2013-06-21 02:06:00,
2013-06-20 21:11:00,67.2,64.2,30.10,SW,222,1.0,1.0,90,0.00,,,0.03,Wunderground v.1.15,2013-06-21 02:11:00,
2013-06-20 21:16:00,67.2,64.2,30.10,SE,125,1.0,3.0,90,0.00,,,0.03,Wunderground v.1.15,2013-06-21 02:16:00,
2013-06-20 21:21:00,67.2,64.2,30.10,SE,146,0.0,3.0,90,0.00,,,0.03,Wunderground v.1.15,2013-06-21 02:21:00,
2013-06-20 21:26:00,67.1,64.1,30.10,SW,221,2.0,5.0,90,0.00,,,0.03,Wunderground v.1.15,2013-06-21 02:26:00,
2013-06-20 21:31:00,67.0,64.3,30.11,SSW,212,4.0,4.0,91,0.00,,,0.03,Wunderground v.1.15,2013-06-21 02:31:00,
2013-06-20 21:36:00,66.9,64.2,30.11,ESE,105,0.0,5.0,91,0.00,,,0.03,Wunderground v.1.15,2013-06-21 02:36:00,
2013-06-20 21:41:00,66.9,64.2,30.12,ESE,109,1.0,2.0,91,0.00,,,0.03,Wunderground v.1.15,2013-06-21 02:41:00,
2013-06-20 21:47:00,66.8,64.1,30.12,NW,317,5.0,5.0,91,0.00,,,0.03,Wunderground v.1.15,2013-06-21 02:47:00,
2013-06-20 21:52:00,66.7,64.0,30.13,WSW,253,0.0,3.0,91,0.00,,,0.03,Wunderground v.1.15,2013-06-21 02:52:00,
2013-06-20 21:57:00,66.4,64.0,30.12,SE,140,2.0,5.0,92,0.00,,,0.03,Wunderground v.1.15,2013-06-21 02:57:00,
2013-06-20 22:02:00,66.2,63.8,30.12,ESE,117,3.0,3.0,92,0.00,,,0.03,Wunderground v.1.15,2013-06-21 03:02:00,
2013-06-20 22:07:00,66.0,63.6,30.13,SE,129,2.0,4.0,92,0.00,,,0.03,Wunderground v.1.15,2013-06-21 03:07:00,
2013-06-20 22:12:00,65.8,63.4,30.13,SSE,167,0.0,2.0,92,0.00,,,0.03,Wunderground v.1.15,2013-06-21 03:12:00,
2013-06-20 22:17:00,65.7,63.3,30.13,WSW,244,0.0,3.0,92,0.00,,,0.03,Wunderground v.1.15,2013-06-21 03:17:00,
2013-06-20 22:22:00,65.6,63.5,30.13,South,178,1.0,2.0,93,0.00,,,0.04,Wunderground v.1.15,2013-06-21 03:22:00,
2013-06-20 22:27:00,65.5,63.4,30.13,South,169,0.0,2.0,93,0.00,,,0.04,Wunderground v.1.15,2013-06-21 03:27:00,
2013-06-20 22:32:00,65.4,63.3,30.13,South,169,0.0,0.0,93,0.00,,,0.04,Wunderground v.1.15,2013-06-21 03:32:00,
2013-06-20 22:37:00,65.3,63.5,30.13,SE,136,0.0,2.0,94,0.00,,,0.04,Wunderground v.1.15,2013-06-21 03:37:00,
2013-06-20 22:42:00,65.1,63.3,30.13,SE,134,2.0,2.0,94,0.00,,,0.04,Wunderground v.1.15,2013-06-21 03:42:00,
2013-06-20 22:47:00,65.0,63.2,30.13,SE,126,1.0,4.0,94,0.00,,,0.04,Wunderground v.1.15,2013-06-21 03:47:00,
2013-06-20 22:52:00,64.9,63.1,30.13,SE,127,3.0,3.0,94,0.00,,,0.04,Wunderground v.1.15,2013-06-21 03:52:00,
2013-06-20 22:57:00,64.8,63.0,30.13,SE,135,0.0,3.0,94,0.00,,,0.04,Wunderground v.1.15,2013-06-21 03:57:00,
2013-06-20 23:01:00,64.7,62.9,30.13,SE,130,1.0,4.0,94,0.00,,,0.04,Wunderground v.1.15,2013-06-21 04:01:00,
2013-06-20 23:06:00,64.5,62.7,30.13,SSE,152,0.0,4.0,94,0.00,,,0.04,Wunderground v.1.15,2013-06-21 04:06:00,
2013-06-20 23:11:00,64.5,62.7,30.13,SE,140,0.0,3.0,94,0.00,,,0.04,Wunderground v.1.15,2013-06-21 04:11:00,
2013-06-20 23:16:00,64.4,62.6,30.13,ESE,107,0.0,3.0,94,0.00,,,0.04,Wunderground v.1.15,2013-06-21 04:16:00,
2013-06-20 23:21:00,64.4,62.6,30.13,ENE,68,0.0,1.0,94,0.00,,,0.04,Wunderground v.1.15,2013-06-21 04:21:00,
2013-06-20 23:26:00,64.5,62.4,30.13,ENE,74,0.0,1.0,93,0.00,,,0.04,Wunderground v.1.15,2013-06-21 04:26:00,
2013-06-20 23:31:00,64.6,62.2,30.13,East,86,0.0,1.0,92,0.00,,,0.04,Wunderground v.1.15,2013-06-21 04:31:00,
2013-06-20 23:36:00,64.6,62.2,30.13,East,82,1.0,2.0,92,0.00,,,0.04,Wunderground v.1.15,2013-06-21 04:36:00,
2013-06-20 23:41:00,64.7,62.3,30.13,SSE,148,0.0,0.0,92,0.00,,,0.04,Wunderground v.1.15,2013-06-21 04:41:00,
2013-06-20 23:46:00,64.8,62.4,30.13,SE,144,0.0,2.0,92,0.00,,,0.04,Wunderground v.1.15,2013-06-21 04:46:00,
2013-06-20 23:51:00,64.9,62.5,30.13,ESE,121,0.0,2.0,92,0.00,,,0.04,Wunderground v.1.15,2013-06-21 04:51:00,
2013-06-20 23:56:00,65.0,62.6,30.13,SSE,149,2.0,3.0,92,0.00,,,0.04,Wunderground v.1.15,2013-06-21 04:56:00,